Regional Weather Roundup
Issued by NWS Little Rock, AR

Home | Current Version | Previous Version | Text Only | Print | Product List | Glossary Off
Versions: 1 2 3 4 5 6 7 8 9 10 11 12 13 14 15 16 17 18 19 20 21 22 23 24 25 26 27 28 29 30 31 32 33 34 35 36 37 38 39 40 41 42 43 44 45 46 47 48 49 50

000
ASUS44 KLZK 231005
RWRLZK

WEATHER ROUNDUP FOR ARKANSAS
NATIONAL WEATHER SERVICE LITTLE ROCK AR
400 AM CST THU FEB 23 2017

NOTE: "FAIR" INDICATES FEW OR NO CLOUDS BELOW 12,000 FEET WITH NO
SIGNIFICANT WEATHER AND/OR OBSTRUCTIONS TO VISIBILITY.

ARZ001-003-010-029-231100-
NORTHWEST ARKANSAS

CITY           SKY/WX    TMP DP  RH WIND       PRES   REMARKS
FAYETTEVILLE   PTCLDY    47  47 100 CALM      29.69S
FORT SMITH     MOCLDY    55  52  89 NE7       29.69F
HARRISON       FOG       51  51 100 SE8       29.71S VSB 1/4
BENTONVILLE    CLOUDY    54  52  94 SE7       29.68F
ROGERS         PTCLDY    55  52  89 SE7       29.69F
SILOAM SPGS    PTCLDY    55  52  88 SE7       29.67S
HIGHFILL       CLOUDY    52  51  97 SE5       29.67F
$$

ARZ004-005-016-231100-
NORTH CENTRAL ARKANSAS

CITY           SKY/WX    TMP DP  RH WIND       PRES   REMARKS
BATESVILLE     CLEAR     54  52  94 CALM      29.77S
FLIPPIN        CLOUDY    48  45  87 CALM      29.71S VSB 1/2
MTN HOME       FOG       51  51 100 SE5       29.73R VSB 1/4
$$

ARZ040-041-231100-
WEST CENTRAL ARKANSAS

CITY           SKY/WX    TMP DP  RH WIND       PRES   REMARKS
MENA           CLOUDY    50  50 100 CALM      29.74S VSB 1/2
MOUNT IDA      FOG       49  48  97 CALM      29.72R VSB 1/2
$$

ARZ009-017-025-026-028-231100-
NORTHEAST ARKANSAS

CITY           SKY/WX    TMP DP  RH WIND       PRES   REMARKS
CORNING        FOG       54  54 100 S7        29.77S VSB 1/4
JONESBORO      FOG       50  49  96 CALM      29.77S VSB 1/4
NEWPORT        FOG       52  52 100 S6        29.77F VSB 1/4
WALNUT RIDGE   CLOUDY    54  50  87 S5        29.76S VSB 1/4
BLYTHEVILLE    CLEAR     54  53  97 S3        29.79S
$$

ARZ022-023-033-042-044-231100-
CENTRAL ARKANSAS

CITY           SKY/WX    TMP DP  RH WIND       PRES   REMARKS
LITTLE ROCK    FOG       48  48 100 CALM      29.76S VSB 1/2
N LITTLE ROCK    N/A     55  54  96 S3        29.77S
JACKSONVILLE   FOG       46  46 100 CALM      29.75S VSB 1/2
SEARCY         FOG       50  50 100 CALM      29.78F VSB 1/4
HOT SPRINGS    PTCLDY    52  51  97 CALM      29.76S
RUSSELLVILLE   CLOUDY    53  52  96 CALM      29.73F FOG
$$

ARZ036-231100-
EAST ARKANSAS

CITY           SKY/WX    TMP DP  RH WIND       PRES   REMARKS
WEST MEMPHIS   FOG       53  53 100 SE5       29.78S VSB 3/4
$$

ARZ050-053-066-070-073-231100-
SOUTHWEST ARKANSAS

CITY           SKY/WX    TMP DP  RH WIND       PRES   REMARKS
ARKADELPHIA    FAIR      49  49 100 CALM      29.76F FOG
CAMDEN         PTCLDY    50  48  93 CALM      29.76F
TEXARKANA      CLEAR     56  54  93 SE7       29.73S
EL DORADO      CLEAR     53  52  96 S5        29.77S
DE QUEEN       FOG       48  48 100 E3        29.71S VSB 1
$$

ARZ056-057-069-231100-
SOUTHEAST ARKANSAS

CITY           SKY/WX    TMP DP  RH WIND       PRES   REMARKS
PINE BLUFF     FOG       50  49  96 CALM      29.76F VSB 1/2
STUTTGART      CLOUDY    54  46  76 SE8       29.77F VSB 1
MONTICELLO     CLEAR     54  52  93 SE5       29.77F

$$





USA.gov is the U.S. government's official web portal to all federal, state and local government web resources and services.